Retour au catalogue

STARLINK-30757

ActifCommunicationsVLEO
NORAD 58131·PAYLOAD·🇺🇸 United States

Lancé Oct 22, 2023 depuis Cape Canaveral Space Force Station

Loading…

Prochains Passages (prochaines 24 heures)

TLE

FraisSource: CelesTrak SupGP

Époque: Sep 14, 2026, 21:21 UTC

1 58131C 23162P   26257.89006944 -.00053333  00000+0 -19318-2 0  2573
2 58131  42.9989 140.6590 0001318 266.7426  30.8185 15.27604195    18

Suivez STARLINK-30757 en temps réel avec AllMySat

Download on the App Store